Tracking 21473 objects as of 27-Sep-2020
HD Live streaming from Space Station
objects crossing your sky now

STARLINK-1450

Track STARLINK-1450 now!
10-day predictions
STARLINK-1450 is classified as:


NORAD ID: 45667
Int'l Code: 2020-035L
Perigee: 556.0 km
Apogee: 557.8 km
Inclination: 53.0 °
Period: 95.6 minutes
Semi major axis: 6927 km
RCS: Unknown
Launch date: June 4, 2020
Source: United States (US)
Launch site: AIR FORCE EASTERN TEST RANGE (AFETR)
aabbcc
Your satellite tracking list
Your tracking list is empty




NASA's NSSDC Master Catalog

Two Line Element Set (TLE):
1 45667U 20035L   20271.58337963 +.00007319 +00000-0 +52124-3 0  9991
2 45667 053.0000 356.0606 0001328 113.5548 034.4165 15.05559428001755
Source of the keplerian elements: AFSPC